Weather History for Morelia, Mexico

Change the Weather History Date:

Tuesday, November 12, 2013

  Actual Average Record
Temperature  
Mean Temperature 64 °F -  
Max Temperature 74 °F 74 °F 82 °F (2000)
Min Temperature 54 °F 46 °F 39 °F (2001)
Degree Days  
Heating Degree Days 1    
Growing Degree Days 14 (Base 50)    
Moisture  
Dew Point 52 °F    
Average Humidity 75    
Maximum Humidity 100    
Minimum Humidity 39    
Precipitation  
Precipitation 0.75 in 0.02 in - ()
Sea Level Pressure  
Sea Level Pressure 30.13 in    
Wind  
Wind Speed 4 mph ()    
Max Wind Speed 17 mph    
Max Gust Speed -    
Visibility 6.5 miles    
Events Rain    
Averages and records for this station are not official NWS values.
T = Trace of Precipitation, MM = Missing Value Source: Averaged Metar Reports

Daily Weather History Graph

Daily Weather History Graph

Search for Another Location

Airport:

Trip Planner

Search our weather history database for the weather conditions in past years. The results will help you decide how hot, cold, wet, or windy it might be!

Date:

Astronomy

Nov. 12, 2013 Rise Set
Actual Time 6:51 AM CST 6:05 PM CST
Civil Twilight 6:28 AM CST 6:28 PM CST
Nautical Twilight 6:01 AM CST 6:54 PM CST
Astronomical Twilight 5:35 AM CST 7:21 PM CST
Moon 2:47 PM CST (11/12) 2:20 AM CST (11/12)
Length of Visible Light 12h 00m
Length of Day
11h 14m
Waxing Gibbous, 76% of the Moon is Illuminated
Nov 12
Waxing Gibbous
Nov 17
Full
Nov 25
Last Quarter
Dec 2
New
Dec 9
First Quarter

Hourly Weather History & Observations

Time (CST) Temp. Dew Point Humidity Pressure Visibility Wind Dir Wind Speed Gust Speed Precip Events Conditions
12:11 AM 59.0 °F 53.6 °F 82% 30.29 in 5.0 mi Calm Calm - N/A   Overcast
12:45 AM 59.0 °F 53.6 °F 82% 30.28 in 5.0 mi NNE 9.2 mph - N/A   Overcast
1:45 AM 57.2 °F 51.8 °F 82% 30.28 in 6.0 mi Calm Calm - N/A   Mostly Cloudy
2:47 AM 53.6 °F 51.8 °F 94% 29.88 in 6.0 mi Calm Calm - N/A   Mostly Cloudy
2:50 AM 59 °F 54 °F 77% 29.91 in 5 mi North 2.2 mph - -   Partly Cloudy
3:45 AM 53.6 °F 51.8 °F 94% 30.26 in 6.0 mi Calm Calm - N/A   Mostly Cloudy
4:41 AM 53.6 °F 51.8 °F 94% 30.26 in 6.0 mi Calm Calm - N/A   Scattered Clouds
5:47 AM 50.0 °F 48.2 °F 94% 29.94 in 6.0 mi Calm Calm - N/A   Scattered Clouds
5:50 AM 56 °F 52 °F 83% 29.95 in 5 mi ENE 2.2 mph - -  
6:46 AM 48.2 °F 48.2 °F 100% 30.30 in 6.0 mi Calm Calm - N/A   Mostly Cloudy
7:43 AM 51.8 °F 51.8 °F 100% 30.32 in 8.0 mi Calm Calm - N/A   Scattered Clouds
8:46 AM 60.8 °F 55.4 °F 82% 29.95 in 8.0 mi Calm Calm - N/A   Scattered Clouds
8:55 AM 59 °F 53 °F 73% 30.03 in 6 mi NNE 4.5 mph - -   Partly Cloudy
9:42 AM 64.4 °F 53.6 °F 68% 30.34 in 8.0 mi Calm Calm - N/A   Scattered Clouds
10:42 AM 68.0 °F 51.8 °F 56% 30.32 in 8.0 mi NE 12.7 mph - N/A   Scattered Clouds
11:44 AM 69.8 °F 51.8 °F 53% 29.90 in 8.0 mi NE 6.9 mph - N/A   Scattered Clouds
11:55 AM 70 °F 53 °F 45% 29.99 in 7 mi North 11.2 mph - -   Partly Cloudy
12:43 PM 75.2 °F 51.8 °F 44% 30.26 in 8.0 mi North 16.1 mph - N/A   Scattered Clouds
1:45 PM 77.0 °F 50.0 °F 39% 30.22 in 8.0 mi NNE 17.3 mph - N/A   Mostly Cloudy
2:51 PM 73.4 °F 48.2 °F 41% 29.81 in 8.0 mi ENE 8.1 mph - N/A   Mostly Cloudy
2:55 PM 73 °F 55 °F 43% 29.91 in 7 mi SSW 2.2 mph - -   Partly Cloudy
3:45 PM 73.4 °F 48.2 °F 41% 30.18 in 8.0 mi NE 10.4 mph - N/A   Mostly Cloudy
4:45 PM 69.8 °F 48.2 °F 46% 30.19 in 8.0 mi NE 13.8 mph - N/A   Overcast
5:47 PM 66.2 °F 50.0 °F 56% 29.91 in 8.0 mi NE 4.6 mph - N/A   Overcast
5:55 PM 67 °F 61 °F 75% 29.87 in 6 mi SSW 2.2 mph - -   Partly Cloudy
6:26 PM 60.8 °F 51.8 °F 72% 30.26 in 7.0 mi NNE 5.8 mph - N/A Rain Light Rain
6:45 PM 59.0 °F 53.6 °F 82% 30.27 in 6.0 mi NE 8.1 mph - N/A Rain Rain
7:49 PM 57.2 °F 53.6 °F 88% 30.32 in 5.0 mi NNE 9.2 mph - N/A Rain Rain
8:45 PM 55.4 °F 53.6 °F 94% 30.01 in 5.0 mi NNE 11.5 mph - N/A Rain Rain
8:50 PM 56 °F 54 °F 89% 29.96 in 5 mi North 2.2 mph - - Rain Light Drizzle
9:45 PM 55.4 °F 53.6 °F 94% 30.36 in 6.0 mi NNE 9.2 mph - N/A Rain Light Rain
10:17 PM 55.4 °F 53.6 °F 94% 30.36 in 6.0 mi NNE 6.9 mph - N/A   Mostly Cloudy
10:45 PM 57.2 °F 53.6 °F 88% 30.36 in 6.0 mi NNE 13.8 mph - N/A Rain Light Rain
11:45 PM 55.4 °F 53.6 °F 94% 29.99 in 6.0 mi NE 6.9 mph - N/A Rain Light Rain
11:50 PM 55 °F 53 °F 88% 29.99 in 5 mi North 2.2 mph - - Rain Drizzle